Tracking 29494 objects as of 8-Sep-2024
HD Live streaming from Space Station
objects crossing your sky now

STARLINK-5435

Track STARLINK-5435 now!
10-day predictions
STARLINK-5435 is classified as:


NORAD ID: 54797
Int'l Code: 2022-175AR
Perigee: 546.0 km
Apogee: 547.6 km
Inclination: 53.2 °
Period: 95.4 minutes
Semi major axis: 6917 km
RCS: Unknown
Launch date: December 17, 2022
Source: United States (US)
Launch site: AIR FORCE EASTERN TEST RANGE (AFETR)
Your satellite tracking list
Your tracking list is empty




NASA's NSSDC Master Catalog

Two Line Element Set (TLE):
1 54797U 22175AR  24251.56935420 -.00016706  00000-0 -10329-2 0  9996
2 54797  53.2175 344.5726 0001147 103.3611 256.7510 15.08879279 95013
Source of the keplerian elements: AFSPC